Find Starlink 31491

NORAD ID: 59011 Int'l Des: 2024-036 Owner: SPXS Country: US Constellation: starlink operational
LEOCIRCULAR

当前视图

正在加载3D地球...

About Starlink 31491

Starlink 31491 (NORAD 59011) is a starlink constellation satellite (v2 mini) launched Feb 23, 2024 by SPXS of US. It operates in LEO, CIRCULAR orbit with a mass of 730.00 kg.

关于 Starlink 31491

正在加载描述...

即将过境

Passes for default location (London). Set your location on the main map for personalized predictions.

高度历史

Loading altitude history...

两行轨道根数

1 59011U 24036P 26171.40201025 -.00000204 00000-0 52291-5 0 9993
2 59011 53.1619 321.4183 0001355 87.8057 272.3099 15.30196234131049
Epoch: Jun 20, 2026 • Age: 20 hours

当前状态

高度 494.2 km
速度 7.62 km/s
星下点 -52.14°S, 110.46°W
发射日期 Feb 23, 2024
运行时间 2.3 years
类型 internet

技术详情

分类 Payload
质量 730.00 kg
干质量 700.00 kg
总质量 730.00 kg
长度 0.30 m
直径 4.10 m
跨度 29.00 m
形状 Box + pan
制造商 SPXS
平台类型 Starlink V2M
阶段状态 In Orbit
所有者/国家 SPXS/US

Most Searched